This demonstration page uses our WeatherBlox Daily Observations layout. Learn more.

Left ArrowRight Arrow

38.88101, -77.10428

Hourly Observations for October 21, 2022

Temp ( °F °C ) Dew Point ( °F °C ) Humidity (%) Winds ( mph kmh ) Pressure ( in mb ) Visibility ( mi km ) Precip ( " mm )
12:52 am 00:52 Mostly Cloudy 50 10 36 2.2 58 58 Calm 30.06 1018 10 16 0.00 0.00
1:52 am 01:52 Partly Cloudy 48 8.9 38 3.3 68 68 SSW 3 6 30.06 1018 10 16 0.00 0.00
2:52 am 02:52 Mostly Cloudy 45 7.2 38 3.3 76 76 WSW 5 7 30.05 1018 10 16 0.00 0.00
3:52 am 03:52 Partly Cloudy 45 7.2 38 3.3 76 76 Calm 30.05 1018 10 16 0.00 0.00
4:52 am 04:52 Mostly Clear 45 7.2 38 3.3 76 76 Calm 30.06 1018 10 16 0.00 0.00
5:52 am 05:52 Mostly Clear 44 6.7 39 3.9 82 82 Calm 30.10 1019 10 16 0.00 0.00
6:52 am 06:52 Partly Cloudy 43 6.1 37 2.8 79 79 Calm 30.12 1020 10 16 0.00 0.00
7:52 am 07:52 Mostly Sunny 45 7.2 39 3.9 80 80 Calm 30.14 1021 10 16 0.00 0.00
8:52 am 08:52 Mostly Sunny 49 9.4 44 6.7 83 83 Calm 30.16 1021 10 16 0.00 0.00
9:52 am 09:52 Sunny 53 11.7 43 6.1 68 68 Calm 30.17 1022 10 16 0.00 0.00
10:52 am 10:52 Sunny 59 15 38 3.3 45 45 Calm 30.18 1022 10 16 0.00 0.00
11:52 am 11:52 Sunny 63 17.2 33 0.6 33 33 NE 3 6 30.17 1022 10 16 0.00 0.00
12:52 pm 12:52 Sunny 66 18.9 28 -2.2 24 24 Calm 30.16 1021 10 16 0.00 0.00
1:52 pm 13:52 Sunny 66 18.9 28 -2.2 24 24 Calm 30.14 1021 10 16 0.00 0.00
2:52 pm 14:52 Mostly Sunny 67 19.4 27 -2.8 22 22 Calm 30.13 1020 10 16 0.00 0.00
3:52 pm 15:52 Mostly Sunny 66 18.9 29 -1.7 25 25 Calm 30.11 1020 10 16 0.00 0.00
4:52 pm 16:52 Mostly Sunny 66 18.9 32 0 28 28 S 5 7 30.11 1020 10 16 0.00 0.00
5:52 pm 17:52 Partly Cloudy 63 17.2 37 2.8 38 38 SE 8 13 30.12 1020 10 16 0.00 0.00
6:52 pm 18:52 Partly Cloudy 61 16.1 36 2.2 39 39 SSE 6 9 30.13 1020 10 16 0.00 0.00
7:52 pm 19:52 Partly Cloudy 57 13.9 40 4.4 53 53 SSE 3 6 30.14 1021 10 16 0.00 0.00
8:52 pm 20:52 Mostly Clear 56 13.3 42 5.6 60 60 S 8 13 30.16 1021 10 16 0.00 0.00
9:52 pm 21:52 Clear 55 12.8 41 5 59 59 SW 5 7 30.17 1022 10 16 0.00 0.00
10:52 pm 22:52 Mostly Clear 53 11.7 43 6.1 68 68 SSW 6 9 30.18 1022 10 16 0.00 0.00
11:52 pm 23:52 Mostly Clear 52 11.1 44 6.7 74 74 S 6 9 30.19 1022 10 16 0.00 0.00

Powered by AerisWeather